Location: Neuvy Saint Sepulchre
(46.5953°N, 1.8122°E)
Time: 06:05:29
(UTC+01:00)

ISS - Pass Details

Date: 07 December 2023
Orbit: 416 x 417 km, 51.6° (Epoch: 01 December)

Event Time Altitude Azimuth Distance (km) Brightness Sun altitude
Rises 18:13:26 0° 286° (WNW) 2,358 1.0 -11.2°
Reaches altitude 10° 18:16:06 10° 264° (W) 1,490 0.4 -11.7°
Maximum altitude 18:18:12 16° 225° (SW) 1,186 -0.5 -12.0°
Drops below altitude 10° 18:20:17 10° 186° (S) 1,483 -0.6 -12.3°
Sets 18:22:57 0° 163° (SSE) 2,341 0.1 -12.8°
